1536829200.71,20703,22.06,74546.8,22.19,-6.31,-7.27,0,*45
1536829201.94,20704,22.06,74544.0,22.21,-6.51,-7.23,0,*4B
1536829203.19,20705,22.06,74546.3,22.25,-6.55,-7.43,0,*4C
1536829204.43,20706,22.06,74544.0,22.25,-7.27,-8.21,0,*40
1536829205.67,20707,22.06,74544.8,22.21,-7.73,-8.55,0,*47
1536829206.89,20708,22.06,74546.0,22.21,-8.17,-8.93,0,*4F
1536829208.12,20709,22.06,74548.3,22.25,-7.31,-8.25,0,*4C
1536829209.34,20710,22.06,74546.0,22.21,-7.11,-8.17,0,*43
1536829210.58,20711,22.06,74546.0,22.25,-7.31,-8.25,0,*45
1536829211.83,20712,22.06,74548.0,22.25,-6.85,-7.61,0,*47
1536829213.05,20713,22.06,74546.5,22.25,-6.55,-7.49,0,*41
1536829214.28,20714,22.06,74544.8,22.25,-7.49,-8.51,0,*4C
1536829215.53,20715,22.06,74544.5,22.25,-6.81,-7.57,0,*41
1536829216.77,20716,22.06,74544.3,22.25,-6.39,-7.27,0,*46
1536829218.04,20717,22.06,74544.8,22.25,-6.63,-7.57,0,*4F
1536829219.28,20718,22.06,74546.5,22.25,-7.35,-8.25,0,*48
1536829220.52,20719,22.06,74546.0,22.25,-7.35,-8.41,0,*4B
1536829221.77,20720,22.06,74546.8,22.25,-7.19,-8.07,0,*4D
1536829223.03,20721,22.06,74544.3,22.25,-7.19,-8.07,0,*4C
1536829224.29,20722,22.06,74546.5,22.25,-7.05,-7.99,0,*4A
1536829225.52,20723,22.06,74548.0,22.27,-7.19,-7.99,0,*44
1536829226.76,20724,22.06,74544.3,22.25,-7.19,-7.99,0,*41
1536829228.01,20725,22.06,74544.5,22.25,-7.19,-7.99,0,*40
1536829229.25,20726,22.06,74544.0,22.25,-7.27,-8.25,0,*46
1536829230.44,20727,22.06,74546.0,22.27,-7.49,-8.37,0,*4E
1536829231.66,20728,22.06,74546.8,22.27,-7.61,-8.55,0,*4F
1536829232.89,20729,22.06,74546.8,22.27,-7.19,-8.07,0,*46
1536829234.13,20730,22.06,74546.0,22.25,-7.27,-8.21,0,*45
1536829235.36,20731,22.06,74544.8,22.21,-7.39,-8.29,0,*47
1536829236.61,20732,22.06,74548.0,22.25,-7.15,-7.99,0,*4A
1536829237.83,20733,22.06,74546.5,22.25,-7.19,-8.21,0,*4B
1536829239.07,20734,22.06,74548.0,22.25,-7.35,-8.25,0,*46
1536829240.32,20735,22.06,74544.0,22.25,-7.01,-7.87,0,*47
1536829241.54,20736,22.06,74550.8,22.25,-6.55,-7.49,0,*46
1536829242.76,20737,22.06,74546.0,22.27,-6.93,-7.87,0,*4D
1536829244.0,20738,22.06,74548.5,22.25,-7.35,-8.41,0,*48
1536829245.22,20739,22.06,74548.8,22.25,-8.21,-9.19,0,*4F
1536829246.48,20740,22.06,74546.5,22.25,-7.05,-7.99,0,*4E
1536829247.7,20741,22.06,74544.3,22.25,-7.53,-8.41,0,*46
1536829248.94,20742,22.06,74546.8,22.25,-7.31,-8.29,0,*4F
1536829250.18,20743,22.06,74546.8,22.25,-7.35,-8.25,0,*46
1536829251.42,20744,22.06,74548.3,22.25,-7.43,-8.29,0,*4C
1536829252.63,20745,22.06,74544.3,22.21,-7.53,-8.41,0,*46
1536829253.84,20746,22.06,74548.0,22.25,-7.83,-8.75,0,*4B
1536829255.09,20747,22.06,74546.3,22.21,-7.43,-8.29,0,*4B
1536829256.32,20748,22.06,74544.8,22.21,-7.65,-8.59,0,*47
1536829257.57,20749,22.06,74546.0,22.21,-8.25,-9.15,0,*44
1536829258.78,20750,22.06,74544.0,22.21,-8.29,-9.23,0,*45
1536829259.96,20751,22.06,74544.8,22.17,-8.33,-9.31,0,*49
1536829261.15,20752,22.06,74544.8,22.17,-8.17,-9.01,0,*4F
1536829262.33,20753,22.06,74544.8,22.17,-8.33,-9.31,0,*4B
1536829263.54,20754,22.06,74546.5,22.17,-7.69,-8.63,0,*4A
1536829264.75,20755,22.06,74544.5,22.17,-7.35,-8.33,0,*47
1536829265.96,20756,22.06,74548.3,22.17,-7.35,-8.29,0,*4F
1536829267.17,20757,22.06,74550.8,22.17,-7.57,-8.59,0,*4D
1536829268.35,20758,22.06,74550.5,22.17,-8.29,-9.31,0,*4B
1536829269.6,20759,22.06,74544.8,22.15,-8.55,-9.61,0,*46
1536829270.83,20760,22.06,74544.5,22.15,-7.49,-8.51,0,*4C
1536829272.02,20761,22.06,74544.8,22.13,-7.11,-8.17,0,*44
1536829273.26,20762,22.06,74544.3,22.13,-7.05,-7.99,0,*4B
1536829274.48,20763,22.06,74548.0,22.13,-7.77,-8.81,0,*49
1536829275.67,20764,22.06,74546.5,22.13,-7.19,-8.17,0,*49
1536829276.88,20765,22.06,74544.3,22.13,-6.85,-7.99,0,*45
1536829278.09,20766,22.06,74548.3,22.13,-7.73,-8.67,0,*40
1536829279.31,20767,22.06,74548.3,22.13,-7.35,-8.37,0,*46
1536829280.51,20768,22.06,74548.3,22.13,-7.61,-8.67,0,*4D
1536829281.69,20769,22.06,74548.0,22.13,-7.53,-8.55,0,*4C
1536829282.87,20770,22.06,74544.5,22.13,-7.23,-8.25,0,*44
1536829284.12,20771,22.06,74550.0,22.11,-7.77,-8.85,0,*4C
1536829285.34,20772,22.06,74550.5,22.09,-8.03,-9.01,0,*47
1536829286.55,20773,22.06,74546.0,22.09,-7.65,-8.71,0,*4F
1536829287.78,20774,22.06,74544.3,22.11,-7.11,-8.17,0,*42
1536829289.0,20775,22.06,74548.8,22.11,-6.85,-7.83,0,*4D
1536829290.22,20776,22.06,74550.0,22.11,-6.85,-7.83,0,*4E
1536829291.43,20777,22.06,74548.0,22.09,-7.27,-8.33,0,*4B
1536829292.64,20778,22.06,74546.8,22.09,-7.69,-8.75,0,*4C
1536829293.89,20779,22.06,74544.0,22.11,-7.57,-8.71,0,*4D
1536829295.1,20780,22.06,74550.8,22.09,-6.89,-7.95,0,*45
1536829296.34,20781,22.06,74546.3,22.09,-7.01,-7.95,0,*45
1536829297.54,20782,22.06,74546.0,22.09,-6.89,-7.83,0,*40
1536829298.75,20783,22.06,74546.5,22.09,-6.69,-7.65,0,*47
1536829299.98,20784,22.06,74544.8,22.11,-6.77,-7.83,0,*4E
1536829301.19,20785,22.06,74546.0,22.09,-6.89,-7.95,0,*40
1536829302.44,20786,22.06,74544.8,22.11,-6.59,-7.57,0,*49
1536829303.65,20787,22.06,74544.0,22.11,-7.53,-8.71,0,*48
1536829304.88,20788,22.06,74546.3,22.11,-6.77,-7.83,0,*42
1536829306.09,20789,22.06,74546.5,22.09,-7.27,-8.29,0,*41
1536829307.36,20790,22.06,74548.0,22.11,-8.51,-9.57,0,*46
1536829308.59,20791,22.06,74550.0,22.09,-8.07,-9.01,0,*4E
1536829309.82,20792,22.06,74548.3,22.09,-7.11,-8.07,0,*42
1536829311.01,20793,22.06,74546.3,22.09,-8.21,-9.27,0,*4C
1536829312.22,20794,22.06,74548.0,22.09,-6.69,-7.57,0,*40
1536829313.46,20795,22.06,74548.0,22.07,-6.13,-7.05,0,*45
1536829314.65,20796,22.06,74544.0,22.09,-6.05,-6.89,0,*4A
1536829315.87,20797,22.06,74540.5,22.11,-6.43,-7.49,0,*4D
1536829317.09,20798,22.06,74546.5,22.11,-6.05,-7.11,0,*4D
1536829318.31,20799,22.06,74546.5,22.11,-5.97,-6.85,0,*48
1536829319.56,20800,22.06,74544.8,22.11,-5.65,-6.35,0,*41
1536829320.8,20801,22.06,74544.0,22.15,-5.69,-6.51,0,*4A
1536829322.04,20802,22.06,74548.0,22.15,-5.97,-7.01,0,*4C
1536829323.24,20803,22.06,74544.3,22.17,-5.55,-6.43,0,*46
1536829324.48,20804,22.06,74548.3,22.17,-5.93,-6.97,0,*42
1536829325.73,20805,22.06,74546.8,22.19,-5.69,-6.55,0,*46
1536829326.95,20806,22.06,74546.3,22.19,-5.55,-6.31,0,*48
1536829328.17,20807,22.06,74544.3,22.21,-5.51,-6.43,0,*43
1536829329.44,20808,22.06,74550.3,22.21,-5.93,-6.93,0,*4F
1536829330.69,20809,22.06,74550.3,22.25,-6.35,-7.35,0,*48
1536829331.93,20810,22.06,74548.5,22.21,-7.31,-8.45,0,*49
1536829333.15,20811,22.06,74548.8,22.21,-6.43,-7.49,0,*4F
1536829334.37,20812,22.06,74544.3,22.25,-6.09,-7.19,0,*43
1536829335.62,20813,22.06,74546.0,22.25,-5.85,-6.89,0,*4D
1536829336.89,20814,22.06,74546.3,22.21,-5.89,-6.93,0,*49
1536829338.11,20815,22.06,74546.5,22.25,-6.09,-7.19,0,*44
1536829339.36,20816,22.06,74546.3,22.25,-5.97,-7.01,0,*4A
1536829340.57,20817,22.06,74546.3,22.21,-6.43,-7.49,0,*49
1536829341.82,20818,22.06,74550.8,22.25,-6.81,-7.95,0,*4D
1536829343.06,20819,22.06,74544.5,22.25,-5.85,-6.89,0,*47
1536829344.3,20820,22.06,74548.0,22.25,-5.35,-6.23,0,*46
1536829345.57,20821,22.06,74550.0,22.25,-5.23,-6.23,0,*40
1536829346.79,20822,22.06,74544.8,22.27,-5.19,-6.09,0,*40
1536829348.04,20823,22.06,74546.8,22.29,-4.81,-5.93,0,*4F
1536829349.26,20824,22.06,74544.5,22.29,-5.43,-6.31,0,*4C
1536829350.47,20825,22.06,74548.0,22.31,-5.35,-6.19,0,*4F
1536829351.72,20826,22.06,74548.8,22.33,-5.81,-6.81,0,*40
1536829352.94,20827,22.06,74548.0,22.31,-6.05,-6.97,0,*4B
1536829354.21,20828,22.06,74548.3,22.33,-5.03,-5.93,0,*44
1536829355.44,20829,22.06,74546.5,22.35,-4.93,-5.73,0,*45
1536829356.65,20830,22.06,74544.5,22.35,-5.35,-6.23,0,*46
1536829357.87,20831,22.06,74546.5,22.37,-6.09,-7.19,0,*41
1536829359.09,20832,22.06,74546.5,22.35,-6.55,-7.57,0,*43
1536829360.29,20833,22.06,74546.0,22.35,-6.35,-7.23,0,*47
1536829361.5,20834,22.06,74550.5,22.35,-6.39,-7.31,0,*4F
1536829362.71,20835,22.06,74544.8,22.35,-6.35,-7.23,0,*41
1536829363.92,20836,22.06,74546.8,22.35,-6.43,-7.35,0,*44
1536829365.14,20837,22.06,74546.0,22.35,-6.77,-7.69,0,*4B
1536829366.37,20838,22.06,74544.0,22.35,-5.89,-6.81,0,*41
1536829367.6,20839,22.06,74546.5,22.35,-5.73,-6.63,0,*49
1536829368.82,20840,22.06,74548.3,22.35,-5.97,-6.93,0,*42
1536829370.06,20841,22.06,74546.5,22.37,-6.39,-7.31,0,*4F
1536829371.27,20842,22.06,74544.0,22.35,-6.39,-7.31,0,*4E
1536829372.47,20843,22.06,74546.3,22.35,-6.13,-7.15,0,*41
1536829373.66,20844,22.06,74546.8,22.35,-6.39,-7.23,0,*4B
1536829374.88,20845,22.06,74544.8,22.35,-6.35,-7.31,0,*45
1536829376.1,20846,22.06,74544.3,22.35,-5.31,-6.09,0,*4B
1536829377.34,20847,22.06,74550.8,22.37,-5.07,-5.97,0,*49
1536829378.58,20848,22.06,74548.0,22.37,-5.31,-6.09,0,*47
1536829379.84,20849,22.06,74548.3,22.37,-4.89,-5.73,0,*4A
1536829381.1,20850,22.06,74548.0,22.41,-4.85,-5.69,0,*44
1536829382.32,20851,22.06,74544.0,22.41,-5.43,-6.31,0,*40
1536829383.56,20852,22.06,74544.8,22.41,-5.35,-6.27,0,*45
1536829384.75,20853,22.06,74546.5,22.43,-5.39,-6.39,0,*45
1536829386.02,20854,22.06,74548.3,22.41,-6.97,-7.99,0,*4C
1536829387.29,20855,22.06,74548.3,22.41,-7.05,-8.07,0,*4F
1536829388.53,20856,22.06,74546.5,22.41,-7.65,-8.67,0,*4C
1536829389.75,20857,22.06,74546.5,22.39,-7.23,-8.07,0,*46
1536829391.0,20858,22.06,74546.5,22.39,-6.93,-7.77,0,*4B
1536829392.23,20859,22.06,74548.8,22.37,-6.85,-7.69,0,*4C
1536829393.44,20860,22.06,74546.8,22.37,-6.73,-7.53,0,*46
1536829394.7,20861,22.06,74550.0,22.37,-6.63,-7.57,0,*42
1536829395.95,20862,22.13,74550.0,22.37,-6.51,-7.43,0,*45
1536829397.19,20863,22.06,74544.3,22.37,-6.47,-7.39,0,*4E
1536829398.41,20864,22.06,74544.0,22.35,-6.69,-7.61,0,*4A
1536829399.64,20865,22.06,74548.0,22.35,-6.63,-7.65,0,*45
1536829400.84,20866,22.06,74544.0,22.35,-6.69,-7.83,0,*44
1536829402.05,20867,22.06,74544.5,22.35,-7.15,-8.11,0,*4B
1536829403.27,20868,22.06,74546.8,22.33,-7.23,-8.29,0,*4C
1536829404.48,20869,22.06,74544.0,22.31,-7.61,-8.59,0,*4E
1536829405.72,20870,22.06,74544.0,22.31,-7.05,-7.99,0,*47
1536829406.94,20871,22.06,74546.5,22.31,-6.73,-7.65,0,*45
1536829408.15,20872,22.06,74548.3,22.31,-6.69,-7.73,0,*4A
1536829409.34,20873,22.06,74548.3,22.31,-7.23,-8.17,0,*49
1536829410.6,20874,22.06,74546.3,22.29,-7.27,-8.03,0,*46
1536829411.84,20875,22.13,74548.3,22.29,-6.51,-7.31,0,*49
1536829413.04,20876,22.06,74548.0,22.31,-5.55,-6.31,0,*45
1536829414.26,20877,22.06,74546.5,22.31,-5.65,-6.39,0,*4F
1536829415.49,20878,22.06,74544.8,22.31,-6.19,-7.05,0,*46
1536829416.74,20879,22.06,74546.8,22.33,-6.27,-7.11,0,*4D
1536829417.95,20880,22.13,74548.3,22.31,-6.55,-7.39,0,*46
1536829419.22,20881,22.06,74548.0,22.33,-6.93,-7.91,0,*4D
1536829420.43,20882,22.06,74544.8,22.31,-7.35,-8.33,0,*46
1536829421.62,20883,22.06,74548.0,22.31,-6.55,-7.53,0,*49
1536829422.86,20884,22.06,74546.3,22.29,-6.47,-7.39,0,*48
1536829424.1,20885,22.06,74544.8,22.31,-5.93,-6.93,0,*4B
1536829425.35,20886,22.06,74542.8,22.33,-6.43,-7.39,0,*45
1536829426.56,20887,22.06,74544.5,22.31,-6.73,-7.65,0,*4C
1536829427.78,20888,22.06,74544.3,22.31,-6.59,-7.39,0,*42
1536829429.0,20889,22.06,74544.0,22.31,-6.55,-7.39,0,*4F
1536829430.22,20890,22.06,74544.0,22.31,-6.81,-7.73,0,*40
1536829431.43,20891,22.06,74548.0,22.31,-6.69,-7.61,0,*44
1536829432.66,20892,22.06,74544.5,22.29,-6.63,-7.53,0,*45
1536829433.87,20893,22.06,74546.5,22.29,-6.77,-7.53,0,*41
1536829435.11,20894,22.13,74548.8,22.29,-6.89,-7.77,0,*41
1536829436.35,20895,22.06,74546.5,22.29,-6.77,-7.65,0,*42
1536829437.54,20896,22.06,74548.0,22.27,-6.73,-7.53,0,*4E
1536829438.8,20897,22.06,74546.3,22.29,-6.23,-7.01,0,*43
1536829440.0,20898,22.13,74548.3,22.27,-6.39,-7.19,0,*40
1536829441.23,20899,22.06,74548.0,22.29,-6.47,-7.27,0,*4B
1536829442.48,20900,22.06,74548.5,22.29,-6.97,-7.83,0,*49
1536829443.71,20901,22.06,74546.5,22.29,-6.73,-7.43,0,*4E
1536829444.98,20902,22.06,74546.5,22.29,-6.63,-7.43,0,*4C
1536829446.19,20903,22.13,74548.8,22.27,-7.15,-7.95,0,*48
1536829447.41,20904,22.06,74546.8,22.27,-7.43,-8.29,0,*44
1536829448.65,20905,22.13,74548.0,22.29,-6.89,-7.73,0,*4C
1536829449.87,20906,22.13,74550.5,22.27,-7.73,-8.55,0,*4E
1536829451.1,20907,22.06,74544.5,22.25,-6.63,-7.49,0,*4F
1536829452.35,20908,22.13,74548.0,22.21,-7.19,-8.03,0,*49
1536829453.56,20909,22.06,74546.8,22.25,-7.83,-8.67,0,*4D
1536829454.8,20910,22.06,74548.8,22.21,-6.43,-7.31,0,*40
1536829456.02,20911,22.06,74544.8,22.21,-6.55,-7.53,0,*42
1536829457.24,20912,22.06,74548.0,22.25,-5.97,-6.89,0,*4E
1536829458.49,20913,22.13,74548.3,22.21,-5.81,-6.81,0,*44
1536829459.73,20914,22.06,74544.8,22.25,-5.47,-6.23,0,*45
1536829460.97,20915,22.13,74550.0,22.25,-5.61,-6.39,0,*4B
1536829462.18,20916,22.06,74546.3,22.27,-5.19,-6.01,0,*4E
1536829463.39,20917,22.06,74544.5,22.29,-5.43,-6.35,0,*49
1536829464.6,20918,22.06,74548.8,22.29,-5.43,-6.31,0,*42
1536829465.82,20919,22.06,74546.3,22.29,-5.39,-6.31,0,*4E
1536829467.08,20920,22.06,74544.5,22.29,-4.93,-5.85,0,*49
1536829468.31,20921,22.13,74550.5,22.31,-4.85,-5.93,0,*41
1536829469.55,20922,22.06,74544.8,22.31,-4.73,-5.65,0,*42
1536829470.77,20923,22.06,74546.5,22.35,-5.51,-6.63,0,*43
1536829471.97,20924,22.13,74548.8,22.35,-6.09,-7.23,0,*4F
1536829473.15,20925,22.13,74552.3,22.35,-7.49,-8.63,0,*40
1536829474.39,20926,22.13,74548.5,22.33,-6.85,-8.03,0,*42
1536829475.63,20927,22.13,74550.0,22.33,-6.05,-7.27,0,*42
1536829476.88,20928,22.06,74548.3,22.33,-5.89,-7.11,0,*4F
1536829478.12,20929,22.06,74548.0,22.33,-6.47,-7.77,0,*4F
1536829479.34,20930,22.06,74546.8,22.31,-6.59,-7.99,0,*4A
1536829480.55,20931,22.13,74548.0,22.31,-6.19,-7.53,0,*49
1536829481.78,20932,22.06,74548.3,22.31,-5.89,-7.23,0,*47
1536829483.01,20933,22.13,74548.5,22.31,-6.27,-7.73,0,*44
1536829484.21,20934,22.06,74546.3,22.31,-6.47,-7.87,0,*4E
1536829485.42,20935,22.06,74548.8,22.31,-6.47,-7.91,0,*48
1536829486.67,20936,22.13,74548.0,22.31,-6.19,-7.61,0,*4F
1536829487.91,20937,22.13,74548.8,22.31,-5.77,-7.27,0,*47
1536829489.13,20938,22.13,74550.5,22.31,-6.39,-7.77,0,*44
1536829490.35,20939,22.13,74548.5,22.31,-5.47,-6.97,0,*40
1536829491.54,20940,22.13,74550.5,22.31,-6.01,-7.49,0,*4D
1536829492.78,20941,22.13,74548.5,22.33,-5.55,-6.97,0,*4E
1536829493.98,20942,22.06,74548.3,22.31,-5.35,-6.59,0,*4B
1536829495.2,20943,22.13,74548.0,22.33,-5.35,-6.81,0,*4D
1536829496.45,20944,22.13,74548.0,22.33,-5.77,-7.23,0,*45
1536829497.71,20945,22.06,74550.0,22.33,-5.77,-7.39,0,*4F
1536829498.96,20946,22.13,74550.0,22.33,-5.55,-7.05,0,*43
1536829500.2,20947,22.13,74554.0,22.33,-5.27,-6.59,0,*4F
1536829501.44,20948,22.13,74550.0,22.33,-5.27,-6.69,0,*43
1536829502.65,20949,22.13,74550.5,22.33,-5.35,-6.69,0,*41
1536829503.87,20950,22.13,74550.8,22.35,-5.65,-7.15,0,*40
1536829505.09,20951,22.13,74550.8,22.35,-5.77,-7.23,0,*47
1536829506.28,20952,22.13,74548.3,22.35,-6.77,-8.29,0,*42
1536829507.48,20953,22.13,74548.5,22.35,-6.43,-7.87,0,*4F
1536829508.72,20954,22.13,74550.5,22.37,-6.39,-7.91,0,*40
1536829509.95,20955,22.13,74550.8,22.35,-7.31,-8.81,0,*44
1536829511.19,20956,22.13,74548.3,22.33,-7.05,-8.45,0,*4E
1536829512.4,20957,22.13,74548.8,22.31,-6.93,-8.33,0,*42
1536829513.62,20958,22.06,74546.5,22.31,-5.55,-6.93,0,*40
1536829514.85,20959,22.13,74550.5,22.31,-5.55,-6.93,0,*41
1536829516.11,20960,22.13,74554.3,22.33,-5.81,-7.05,0,*4E
1536829517.33,20961,22.06,74546.8,22.33,-5.47,-6.81,0,*48
1536829518.56,20962,22.13,74548.8,22.33,-5.51,-6.81,0,*4C
1536829519.8,20963,22.13,74550.5,22.33,-5.51,-6.93,0,*4E
1536829521.05,20964,22.13,74550.5,22.33,-6.39,-7.77,0,*4F
1536829522.27,20965,22.13,74552.3,22.33,-6.31,-7.87,0,*49
1536829523.5,20966,22.13,74550.0,22.33,-6.97,-8.67,0,*47
1536829524.71,20967,22.13,74548.0,22.31,-7.27,-8.67,0,*4E
1536829525.92,20968,22.13,74548.0,22.33,-6.69,-8.21,0,*4A
1536829527.14,20969,22.13,74550.3,22.31,-5.51,-6.93,0,*46
1536829528.36,20970,22.13,74548.5,22.31,-6.31,-7.73,0,*44
1536829529.55,20971,22.13,74548.0,22.31,-7.11,-8.55,0,*4D
1536829530.73,20972,22.13,74548.8,22.31,-7.23,-8.67,0,*4E
1536829531.99,20973,22.13,74550.0,22.29,-8.03,-9.41,0,*4E
1536829533.23,20974,22.13,74550.8,22.27,-8.11,-9.57,0,*43
1536829534.47,20975,22.13,74548.0,22.21,-7.35,-8.67,0,*4F
1536829535.71,20976,22.13,74550.0,22.25,-7.01,-8.29,0,*45
1536829536.94,20977,22.13,74550.5,22.21,-7.49,-8.81,0,*4E
1536829538.16,20978,22.13,74548.0,22.21,-7.53,-8.93,0,*49
1536829539.37,20979,22.13,74550.3,22.19,-7.83,-9.01,0,*44
1536829540.59,20980,22.13,74550.0,22.17,-7.65,-8.89,0,*45
1536829541.8,20981,22.13,74550.5,22.17,-8.33,-9.57,0,*4A
1536829543.05,20982,22.13,74548.3,22.17,-9.45,-10.79,0,*7D
1536829544.24,20983,22.13,74550.3,22.13,-8.59,-9.79,0,*4C
1536829545.47,20984,22.13,74548.5,22.11,-8.85,-10.05,0,*7B
1536829546.67,20985,22.13,74550.5,22.09,-8.63,-9.71,0,*40
1536829547.89,20986,22.13,74552.3,22.09,-7.57,-8.97,0,*42
1536829549.13,20987,22.13,74546.8,22.07,-8.07,-9.19,0,*40
1536829550.37,20988,22.13,74550.8,22.07,-7.57,-8.67,0,*4D
1536829551.58,20989,22.13,74548.3,22.05,-8.11,-9.31,0,*41
1536829552.77,20990,22.13,74550.3,22.05,-7.87,-8.93,0,*40
1536829553.98,20991,22.13,74550.3,22.05,-8.81,-9.89,0,*42
1536829555.21,20992,22.13,74548.3,22.03,-8.55,-9.67,0,*4E
1536829556.43,20993,22.13,74550.0,21.99,-8.97,-9.93,0,*4A
1536829557.67,20994,22.13,74550.8,21.97,-9.49,-10.71,0,*75
1536829558.89,20995,22.13,74548.8,21.95,-8.67,-9.67,0,*44
1536829560.11,20996,22.13,74550.3,21.93,-8.81,-9.79,0,*46
1536829561.36,20997,22.06,74544.8,21.91,-8.59,-9.53,0,*48
1536829562.61,20998,22.13,74548.5,21.91,-8.55,-9.41,0,*48
1536829563.86,20999,22.13,74548.5,21.91,-8.59,-9.53,0,*46
1536829565.09,21000,22.13,74546.8,21.91,-8.89,-10.05,0,*78
1536829566.31,21001,22.13,74550.3,21.87,-8.81,-9.75,0,*49
1536829567.52,21002,22.13,74546.8,21.87,-8.03,-9.05,0,*47
1536829568.76,21003,22.13,74550.0,21.85,-8.81,-9.89,0,*4A
1536829569.98,21004,22.13,74544.5,21.85,-8.93,-9.93,0,*45
1536829571.25,21005,22.13,74546.8,21.85,-7.57,-8.51,0,*4C
1536829572.47,21006,22.13,74546.5,21.85,-7.87,-8.75,0,*44
1536829573.71,21007,22.13,74546.3,21.85,-7.19,-8.03,0,*43
1536829574.97,21008,22.13,74548.5,21.85,-7.05,-7.91,0,*45
1536829576.22,21009,22.13,74548.0,21.85,-7.19,-8.11,0,*4E
1536829577.46,21010,22.13,74546.0,21.85,-7.11,-8.03,0,*4D
1536829578.7,21011,22.13,74544.5,21.85,-7.23,-8.11,0,*4E
1536829579.97,21012,22.13,74544.8,21.85,-7.05,-7.95,0,*4A
1536829581.2,21013,22.13,74550.5,21.85,-7.31,-8.25,0,*48
1536829582.42,21014,22.13,74546.5,21.83,-7.61,-8.45,0,*4A
1536829583.67,21015,22.13,74550.0,21.85,-6.89,-7.73,0,*40
1536829584.91,21016,22.13,74548.5,21.85,-7.73,-8.63,0,*49
1536829586.15,21017,22.13,74546.3,21.85,-7.11,-7.99,0,*46
1536829587.42,21018,22.13,74544.3,21.85,-7.61,-8.51,0,*45
1536829588.68,21019,22.13,74548.8,21.85,-7.69,-8.51,0,*4C
1536829589.93,21020,22.13,74548.0,21.85,-6.89,-7.73,0,*46
1536829591.15,21021,22.13,74548.0,21.87,-7.57,-8.41,0,*49
1536829592.37,21022,22.13,74544.8,21.87,-6.77,-7.73,0,*47
1536829593.59,21023,22.13,74544.0,21.87,-7.05,-7.87,0,*49
1536829594.82,21024,22.13,74544.5,21.87,-6.51,-7.43,0,*46
1536829596.03,21025,22.13,74546.8,21.89,-5.73,-6.51,0,*48
1536829597.26,21026,22.13,74548.0,21.89,-5.93,-6.73,0,*45
1536829598.48,21027,22.13,74548.3,21.91,-6.01,-6.81,0,*48
1536829599.7,21028,22.13,74548.8,21.93,-6.27,-7.11,0,*49
1536829600.92,21029,22.13,74546.8,21.93,-5.77,-6.51,0,*4B
1536829602.15,21030,22.13,74550.3,21.95,-6.31,-7.23,0,*40
1536829603.39,21031,22.13,74550.3,21.95,-6.69,-7.69,0,*42
1536829604.63,21032,22.13,74544.5,21.95,-7.43,-8.41,0,*4D
1536829605.87,21033,22.13,74546.8,21.97,-6.63,-7.31,0,*45
1536829607.09,21034,22.13,74550.3,21.97,-5.93,-6.85,0,*40
1536829608.28,21035,22.13,74550.3,21.97,-6.59,-7.53,0,*4E
1536829609.47,21036,22.13,74548.0,21.97,-6.51,-7.53,0,*45
1536829610.69,21037,22.13,74546.3,21.97,-5.85,-6.73,0,*4D
1536829611.92,21038,22.13,74548.0,21.97,-6.23,-7.05,0,*4D
1536829613.14,21039,22.13,74548.0,21.99,-5.55,-6.43,0,*43
1536829614.37,21040,22.13,74548.5,22.03,-5.47,-6.51,0,*4D
1536829615.61,21041,22.13,74548.8,22.03,-5.11,-6.01,0,*4A
1536829616.82,21042,22.06,74546.0,22.05,-5.89,-6.69,0,*40
1536829618.09,21043,22.13,74546.0,22.07,-7.05,-7.99,0,*4B
1536829619.33,21044,22.13,74548.5,22.07,-6.09,-7.01,0,*40
1536829620.54,21045,22.13,74548.8,22.05,-5.23,-6.05,0,*4D
1536829621.79,21046,22.13,74550.5,22.09,-5.03,-5.85,0,*4B
1536829623.04,21047,22.13,74548.0,22.11,-5.19,-6.09,0,*4F
1536829624.31,21048,22.13,74548.0,22.11,-5.27,-6.19,0,*4C
1536829625.52,21049,22.13,74552.3,22.13,-6.05,-6.97,0,*4A
1536829626.73,21050,22.13,74548.5,22.13,-7.19,-8.11,0,*4E
1536829627.95,21051,22.13,74550.5,22.13,-6.43,-7.35,0,*48
1536829629.19,21052,22.13,74548.5,22.15,-5.85,-6.77,0,*43
1536829630.38,21053,22.13,74548.0,22.13,-5.47,-6.31,0,*48
1536829631.62,21054,22.13,74550.0,22.15,-5.23,-6.05,0,*4C
1536829632.85,21055,22.13,74550.5,22.17,-4.93,-5.73,0,*47
1536829634.09,21056,22.13,74548.5,22.19,-5.65,-6.55,0,*45
1536829635.31,21057,22.13,74548.8,22.17,-6.19,-7.15,0,*47
1536829636.55,21058,22.13,74548.5,22.19,-6.77,-7.69,0,*45
1536829637.79,21059,22.13,74550.3,22.19,-5.69,-6.35,0,*40
1536829639.03,21060,22.13,74550.0,22.19,-5.39,-6.19,0,*41
1536829640.27,21061,22.13,74548.5,22.19,-4.85,-5.51,0,*49
1536829641.5,21062,22.13,74550.0,22.25,-5.43,-6.23,0,*48
1536829642.75,21063,22.13,74548.8,22.25,-5.65,-6.47,0,*4F
1536829643.95,21064,22.13,74550.3,22.27,-6.55,-7.49,0,*45
1536829645.19,21065,22.13,74550.8,22.27,-7.27,-8.11,0,*42
1536829646.39,21066,22.13,74548.8,22.27,-6.01,-6.89,0,*4B
1536829647.61,21067,22.13,74550.5,22.27,-5.31,-6.13,0,*49
1536829648.84,21068,22.13,74550.5,22.29,-5.31,-5.97,0,*47
1536829650.08,21069,22.13,74548.8,22.29,-5.51,-6.19,0,*45
1536829651.32,21070,22.13,74550.8,22.29,-5.55,-6.23,0,*40
1536829652.53,21071,22.13,74548.5,22.29,-5.39,-6.09,0,*43
1536829653.78,21072,22.13,74550.3,22.33,-5.77,-6.55,0,*48
1536829655.02,21073,22.13,74548.8,22.33,-5.69,-6.43,0,*41
1536829656.27,21074,22.13,74548.8,22.33,-5.77,-6.59,0,*42
1536829657.5,21075,22.13,74550.8,22.33,-6.05,-6.97,0,*47
1536829658.72,21076,22.13,74546.3,22.35,-6.77,-7.69,0,*47
1536829659.91,21077,22.13,74548.3,22.35,-7.49,-8.29,0,*41
1536829661.13,21078,22.13,74546.3,22.31,-6.85,-7.73,0,*4B
1536829662.34,21079,22.13,74550.3,22.35,-6.23,-7.15,0,*42
1536829663.59,21080,22.13,74544.5,22.31,-6.19,-6.93,0,*46
1536829664.83,21081,22.13,74548.0,22.33,-5.65,-6.55,0,*47
1536829666.1,21082,22.13,74550.5,22.33,-5.93,-6.93,0,*47
1536829667.34,21083,22.13,74546.8,22.33,-5.81,-6.69,0,*40
1536829668.59,21084,22.13,74550.5,22.33,-5.69,-6.59,0,*42
1536829669.78,21085,22.13,74546.0,22.35,-7.15,-8.17,0,*48
1536829671.0,21086,22.13,74550.5,22.35,-7.15,-8.11,0,*4D
1536829672.2,21087,22.13,74546.8,22.35,-7.23,-8.37,0,*4D
1536829673.43,21088,22.13,74550.3,22.33,-7.39,-8.41,0,*4E
1536829674.62,21089,22.13,74550.3,22.31,-6.69,-7.87,0,*4C
1536829675.81,21090,22.13,74550.3,22.31,-7.49,-8.45,0,*46
1536829677.02,21091,22.13,74548.3,22.31,-6.39,-7.27,0,*4A
1536829678.24,21092,22.13,74550.0,22.31,-6.69,-7.61,0,*4E
1536829679.48,21093,22.13,74546.0,22.33,-6.73,-7.73,0,*45
1536829680.7,21094,22.13,74548.3,22.31,-8.41,-9.37,0,*41
1536829681.89,21095,22.13,74548.3,22.31,-8.33,-9.27,0,*44
1536829683.1,21096,22.13,74546.3,22.27,-7.61,-8.67,0,*4D
1536829684.32,21097,22.13,74548.3,22.27,-8.07,-9.19,0,*4B
1536829685.54,21098,22.13,74544.5,22.27,-7.83,-8.81,0,*47
1536829686.79,21099,22.13,74550.0,22.27,-7.31,-8.07,0,*41
1536829688.02,21100,22.13,74548.0,22.21,-7.39,-8.29,0,*42
1536829689.29,21101,22.13,74548.0,22.25,-7.43,-8.51,0,*45
1536829690.53,21102,22.13,74548.0,22.25,-7.57,-8.41,0,*42
1536829691.77,21103,22.13,74548.8,22.21,-8.03,-8.93,0,*46
1536829693.02,21104,22.13,74552.0,22.21,-8.67,-9.53,0,*4E
1536829694.23,21105,22.13,74550.8,22.17,-8.07,-8.97,0,*45
1536829695.44,21106,22.13,74550.5,22.17,-7.77,-8.59,0,*4C
1536829696.65,21107,22.13,74550.0,22.17,-7.65,-8.63,0,*47
1536829697.87,21108,22.13,74548.0,22.17,-7.91,-8.85,0,*4B
1536829699.09,21109,22.13,74548.0,22.17,-8.07,-8.89,0,*46
1536829700.3,21110,22.13,74550.3,22.15,-8.41,-9.23,0,*4F
1536829701.54,21111,22.13,74548.0,22.13,-8.81,-9.61,0,*42
1536829702.78,21112,22.13,74550.3,22.11,-8.33,-9.11,0,*4D
1536829704.03,21113,22.13,74548.8,22.11,-8.45,-9.53,0,*4B
1536829705.26,21114,22.13,74550.5,22.09,-9.11,-10.09,0,*72
1536829706.5,21115,22.13,74548.8,22.09,-8.51,-9.45,0,*46
1536829707.69,21116,22.13,74546.8,22.05,-8.37,-9.23,0,*49